Weather History for Swansboro, NC

Change the Weather History Date:

Sunday, January 29, 2012

  Actual Average (KNKT) Record (KNKT)
Temperature  
Mean Temperature 44 °F -  
Max Temperature 55 °F 52 °F 75 °F (2002)
Min Temperature 33 °F 34 °F 19 °F (2014)
Degree Days  
Heating Degree Days 20    
Moisture  
Dew Point 27 °F    
Average Humidity 53    
Maximum Humidity 79    
Minimum Humidity 22    
Precipitation  
Precipitation 0.00 in - - ()
Sea Level Pressure  
Sea Level Pressure 30.29 in    
Wind  
Wind Speed 6 mph (NNW)    
Max Wind Speed 10 mph    
Max Gust Speed 20 mph    
Visibility 10 miles    
Events      
Averages and records for this station are not official NWS values.
T = Trace of Precipitation, MM = Missing Value Source: NWS Daily Summary

Daily Weather History Graph

Daily Weather History Graph

Search for Another Location

Airport:

Trip Planner

Search our weather history database for the weather conditions in past years. The results will help you decide how hot, cold, wet, or windy it might be!

Date:

Astronomy

Jan. 29, 2012 Rise Set
Actual Time 7:08 AM EST 5:33 PM EST
Civil Twilight 6:42 AM EST 6:00 PM EST
Nautical Twilight 6:11 AM EST 6:30 PM EST
Astronomical Twilight 5:42 AM EST 7:00 PM EST
Moon 10:17 AM EST (1/29) 11:57 PM EST (1/29)
Length of Visible Light 11h 18m
Length of Day
10h 25m
Waxing Crescent, 36% of the Moon is Illuminated
Jan 29
Waxing Crescent
Jan 30
First Quarter
Feb 7
Full
Feb 14
Last Quarter
Feb 21
New

Hourly Weather History & Observations

Time (EST) Temp. Windchill Dew Point Humidity Pressure Visibility Wind Dir Wind Speed Gust Speed Precip Events Conditions
12:57 AM 48.0 °F - 37.0 °F 66% 30.19 in 10.0 mi North 8.1 mph - N/A   Clear
1:57 AM 46.9 °F - 36.0 °F 66% 30.22 in 10.0 mi North 9.2 mph - N/A   Clear
2:57 AM 46.0 °F 41.9 °F 32.0 °F 58% 30.22 in 10.0 mi North 8.1 mph - N/A   Clear
3:57 AM 44.6 °F 42.2 °F 30.2 °F 57% 30.23 in 10.0 mi North 4.6 mph - N/A   Clear
4:57 AM 43.0 °F 39.5 °F 30.0 °F 60% 30.26 in 10.0 mi North 5.8 mph - N/A   Mostly Cloudy
5:57 AM 43.0 °F 38.8 °F 28.9 °F 58% 30.27 in 10.0 mi North 6.9 mph - N/A   Scattered Clouds
6:57 AM 41.0 °F 38.0 °F 28.0 °F 60% 30.29 in 10.0 mi North 4.6 mph - N/A   Partly Cloudy
7:57 AM 41.0 °F 38.0 °F 28.0 °F 60% 30.32 in 10.0 mi NNW 4.6 mph - N/A   Partly Cloudy
8:57 AM 46.0 °F 43.1 °F 25.0 °F 44% 30.34 in 10.0 mi Variable 5.8 mph - N/A   Clear
9:57 AM 48.9 °F - 19.9 °F 32% 30.35 in 10.0 mi North 9.2 mph - N/A   Clear
10:57 AM 51.1 °F - 18.0 °F 27% 30.37 in 10.0 mi NNE 10.4 mph - N/A   Clear
11:57 AM 53.1 °F - 19.9 °F 27% 30.35 in - North 6.9 mph 19.6 mph N/A   Clear
12:57 PM 54.0 °F - 19.9 °F 26% 30.31 in - NNW 4.6 mph - N/A   Clear
1:57 PM 55.0 °F - 19.9 °F 25% 30.29 in - North 5.8 mph - N/A   Clear
2:57 PM 55.9 °F - 21.0 °F 26% 30.27 in - Calm Calm - N/A   Clear
3:57 PM 54.0 °F - 16.0 °F 22% 30.27 in - West 3.5 mph - N/A   Clear
4:57 PM 51.1 °F - 27.0 °F 39% 30.27 in - SW 4.6 mph - N/A   Clear
5:57 PM 44.1 °F 42.5 °F 30.9 °F 60% 30.29 in - WSW 3.5 mph - N/A   Clear
6:57 PM 39.0 °F - 30.0 °F 70% 30.31 in 10.0 mi Calm Calm - N/A   Clear
7:57 PM 37.0 °F - 30.0 °F 76% 30.33 in 10.0 mi Calm Calm - N/A   Clear
8:57 PM 34.0 °F - 28.0 °F 79% 30.33 in 10.0 mi Calm Calm - N/A   Clear
9:57 PM 34.0 °F - 28.0 °F 79% 30.33 in 10.0 mi Calm Calm - N/A   Clear
10:57 PM 34.0 °F - 28.0 °F 79% 30.33 in 10.0 mi Calm Calm - N/A   Clear
11:57 PM 33.1 °F - 27.0 °F 78% 30.32 in 10.0 mi Calm Calm - N/A   Clear